Weather Roundup
Issued by NWS Springfield, MO

Home | Current Version | Previous Version | Text Only | Print | Product List | Glossary On
Versions: 1 2 3 4 5 6 7 8 9 10 11 12 13 14 15 16 17 18 19 20 21 22 23 24 25 26 27 28 29 30 31 32 33 34 35 36 37 38 39 40 41 42 43 44 45 46 47 48 49 50
000
NZUS99 KSGF 060307
HRRSGF

HOURLY WEATHER
NATIONAL WEATHER SERVICE SPRINGFIELD MO
900 PM CST FRI FEB 05 2016

......SGF CWA......

CITY           SKY/WX    TMP DP  RH WIND       PRES   REMARKS
SPRINGFIELD    CLEAR     32  19  58 S5        30.29S WCI  27
JOPLIN         PTCLDY    41  20  43 S8        30.29F
WEST PLAINS    PTCLDY    34  16  47 CALM      30.31S
ROLLA          CLOUDY    35  19  52 SE8       30.29S WCI  29
OSAGE BEACH    PTCLDY    36  18  48 CALM      30.30S
BRANSON        MOCLDY    41  14  33 CALM      30.31S

......SURROUNDING SGF CWA......

CITY           SKY/WX    TMP DP  RH WIND       PRES   REMARKS
CHANUTE        PTCLDY    40  24  53 SE7       30.26S
PARSONS        CLOUDY    43  24  47 S3        30.28S
COFFEYVILLE    CLOUDY    43  25  49 S6        30.27F
EMPORIA        CLOUDY    35  23  61 W5        30.25S WCI  31
GROVE OK       CLOUDY    43  21  42 CALM      30.31S
ROGERS AR      CLEAR     39  15  37 SE5       30.31S
SILOAM SPRINGS PTCLDY    41  14  33 SE6       30.30F
HARRISON AR    CLEAR     39  15  37 VRB3      30.31S
NEAR YELLVILLE CLEAR     43  14  31 SW6       30.30S

......KANSAS AND MISSOURI......

CITY           SKY/WX    TMP DP  RH WIND       PRES   REMARKS
KANSAS CTY INT CLOUDY    35  25  66 E3        30.27S
DOWNTOWN KC    CLOUDY    38  25  59 CALM      30.28S
COLUMBIA       CLOUDY    33  18  53 E6        30.30F WCI  28
SEDALIA        CLOUDY    36  21  54 SE5       30.30S WCI  32
ST JOSEPH      CLOUDY    35  23  61 CALM      30.28S
ST LOUIS       PTCLDY    32  17  54 E5        30.35S WCI  27
SPIRIT OF STL  CLEAR     26  21  81 CALM      30.34S
KIRKSVILLE     CLOUDY    31  22  69 S5        30.30F WCI  26
WICHITA        PTCLDY    37  24  59 NW8       30.27R WCI  31
TOPEKA         CLOUDY    33  25  72 CALM      30.27S
OLATHE         CLOUDY    36  24  62 SE3       30.27S

......TENNESSEE......

CITY           SKY/WX    TMP DP  RH WIND       PRES   REMARKS
MEMPHIS        MOCLDY    41  24  51 CALM      30.39R
NASHVILLE      CLOUDY    36  20  52 S5        30.38F WCI  32

......ARKANSAS.......

CITY           SKY/WX    TMP DP  RH WIND       PRES   REMARKS
FAYETTEVILLE   CLEAR     28  20  71 S5        30.31F WCI  23
FT SMITH       PTCLDY    39  18  42 CALM      30.32F
LITTLE ROCK    MOCLDY    37  22  54 S5        30.38R WCI  33

......OKLAHOMA.......

CITY           SKY/WX    TMP DP  RH WIND       PRES   REMARKS
TULSA          CLOUDY    49  24  37 S12       30.27R HAZE
PONCA CITY     CLOUDY    49  28  44 CALM      30.27S
MCALESTER      CLOUDY    45  23  42 SE6       30.31S
OKLAHOMA CITY  CLOUDY    48  28  46 S12       30.25S

......IOWA............

CITY           SKY/WX    TMP DP  RH WIND       PRES   REMARKS
DES MOINES     FLURRIES  30  24  78 S9        30.27F WCI  22
QUAD CITIES    CLOUDY    28  20  71 CALM      30.33S

......ILLINOIS........

CITY           SKY/WX    TMP DP  RH WIND       PRES   REMARKS
QUINCY         CLEAR     28  19  69 E6        30.32F WCI  22
CHICAGO        CLOUDY    29  21  72 W6        30.33F WCI  23



USA.gov is the U.S. government's official web portal to all federal, state and local government web resources and services.